Date String (YYYY-MM-DD hh:mm:ss) UTC,Instrument flags,Ambient pressure (hPa),Sample flow (lpm),Bypass flow (lpm),Sample temperature (°C),Ambient temperature (°C),ASC tube jacket temperature (°C),LED temperature (°C),Box temperature (°C),Sample RH (%),Span deviation,Mass concentration (μg/m³),Mass concentration (μg/m³),Mass concentration (μg/m³)
DateTimeUTC,F1_M11,P_M11,Q1_M11,Q2_M11,T1_M11,T2_M11,T3_M11,T4_M11,T5_M11,U1_M11,ZSPAN_M11,X0_M11,X2_M11,X1_M11
2022-07-09 08:00:00,,0832.1,5.01,0.00,29.6,28.2,00.0,38.4,31.5,25.5,0000.0,0008.61,0003.76,0003.21
2022-07-09 08:01:00,,0832.1,5.01,0.00,29.6,28.3,00.0,38.4,31.5,25.5,0000.0,0008.58,0003.73,0003.20
2022-07-09 08:02:00,,0832.0,5.00,0.00,29.7,28.4,00.0,38.4,31.5,25.2,0000.0,0008.84,0003.69,0003.21
2022-07-09 08:03:00,,0832.1,4.99,0.00,29.7,28.4,00.0,38.4,31.5,25.1,0000.0,0009.02,0003.66,0003.21
2022-07-09 08:04:00,,0832.0,5.00,0.00,29.7,28.5,00.0,38.4,31.6,25.0,0000.0,0008.97,0003.66,0003.21
2022-07-09 08:05:00,,0832.1,5.01,0.00,29.7,28.6,00.0,38.5,31.6,24.9,0000.0,0009.16,0003.69,0003.21
2022-07-09 08:06:00,,0832.0,5.00,0.00,29.7,28.6,00.0,38.5,31.6,24.9,0000.0,0009.23,0003.70,0003.22
2022-07-09 08:07:00,,0832.0,4.99,0.00,29.8,28.7,00.0,38.5,31.7,24.8,0000.0,0008.56,0003.68,0003.23
2022-07-09 08:08:00,,0832.1,5.00,0.00,29.8,28.7,00.0,38.5,31.7,24.7,0000.0,0008.13,0003.68,0003.22
2022-07-09 08:09:00,,0832.1,4.99,0.00,29.8,28.8,00.0,38.5,31.7,24.7,0000.0,0007.87,0003.66,0003.23
2022-07-09 08:10:00,,0832.1,5.00,0.00,29.8,28.8,00.0,38.6,31.7,24.6,0000.0,0007.93,0003.67,0003.23
2022-07-09 08:11:00,,0832.1,4.99,0.00,29.9,28.8,00.0,38.6,31.8,24.5,0000.0,0008.19,0003.73,0003.24
2022-07-09 08:12:00,,0832.1,5.01,0.00,29.9,28.3,00.0,38.5,31.7,24.4,0000.0,0008.18,0003.75,0003.24
2022-07-09 08:13:00,,0832.0,5.00,0.00,29.8,27.6,00.0,38.5,31.6,24.5,0000.0,0007.78,0003.76,0003.24
2022-07-09 08:14:00,,0831.9,5.01,0.00,29.8,27.4,00.0,38.5,31.4,24.5,0000.0,0007.54,0003.81,0003.25
2022-07-09 08:15:00,,0832.0,5.00,0.00,29.7,27.4,00.0,38.5,31.3,24.5,0000.0,0007.64,0003.85,0003.26
2022-07-09 08:16:00,,0831.9,5.00,0.00,29.6,27.5,00.0,38.4,31.4,24.5,0000.0,0007.43,0003.85,0003.27
2022-07-09 08:17:00,,0831.9,5.00,0.00,29.6,27.7,00.0,38.4,31.4,24.7,0000.0,0007.34,0003.85,0003.26
2022-07-09 08:18:00,,0832.0,4.99,0.00,29.6,27.8,00.0,38.4,31.4,24.9,0000.0,0007.36,0003.86,0003.26
2022-07-09 08:19:00,,0832.0,5.01,0.00,29.6,27.9,00.0,38.4,31.4,24.8,0000.0,0007.32,0003.87,0003.27
2022-07-09 08:20:00,,0832.0,5.00,0.00,29.6,28.1,00.0,38.4,31.4,25.2,0000.0,0007.43,0003.90,0003.28
2022-07-09 08:21:00,,0832.0,5.00,0.00,29.6,28.2,00.0,38.4,31.5,24.9,0000.0,0007.50,0003.90,0003.27
2022-07-09 08:22:00,,0832.0,4.99,0.00,29.7,28.3,00.0,38.4,31.5,24.8,0000.0,0007.53,0003.87,0003.27
2022-07-09 08:23:00,,0832.0,4.99,0.00,29.7,28.4,00.0,38.4,31.5,24.7,0000.0,0007.71,0003.86,0003.28
2022-07-09 08:24:00,,0832.0,5.00,0.00,29.7,28.4,00.0,38.5,31.5,24.6,0000.0,0007.95,0003.88,0003.29
2022-07-09 08:25:00,,0831.9,5.00,0.00,29.7,28.5,00.0,38.5,31.6,24.6,0000.0,0008.30,0003.87,0003.29
2022-07-09 08:26:00,,0832.0,5.00,0.00,29.7,28.6,00.0,38.5,31.6,24.6,0000.0,0008.62,0003.86,0003.29
2022-07-09 08:27:00,,0832.0,5.00,0.00,29.8,28.6,00.0,38.5,31.6,24.4,0000.0,0008.71,0003.88,0003.29
2022-07-09 08:28:00,,0832.0,4.99,0.00,29.8,28.7,00.0,38.5,31.7,24.3,0000.0,0008.87,0003.89,0003.29
2022-07-09 08:29:00,,0831.9,5.01,0.00,29.8,28.7,00.0,38.5,31.7,24.3,0000.0,0008.88,0003.88,0003.29
2022-07-09 08:30:00,,0831.9,4.99,0.00,29.8,28.8,00.0,38.6,31.7,24.3,0000.0,0009.28,0003.90,0003.29
2022-07-09 08:31:00,,0832.0,5.00,0.00,29.9,28.8,00.0,38.6,31.8,24.2,0000.0,0009.99,0003.86,0003.29
2022-07-09 08:32:00,,0832.0,4.99,0.00,29.9,28.8,00.0,38.6,31.8,24.1,0000.0,0009.95,0003.85,0003.29
2022-07-09 08:33:00,,0832.0,5.01,0.00,29.9,28.8,00.0,38.6,31.8,24.2,0000.0,0009.69,0003.85,0003.29
2022-07-09 08:34:00,,0832.0,5.01,0.00,29.9,28.3,00.0,38.5,31.7,24.0,0000.0,0009.59,0003.87,0003.29
2022-07-09 08:35:00,,0832.0,4.99,0.00,29.8,27.6,00.0,38.5,31.6,24.1,0000.0,0009.31,0003.85,0003.28
2022-07-09 08:36:00,,0831.9,5.00,0.00,29.8,27.5,00.0,38.5,31.5,24.4,0000.0,0008.98,0003.84,0003.28
2022-07-09 08:37:00,,0831.9,5.02,0.00,29.7,27.5,00.0,38.5,31.4,24.7,0000.0,0008.52,0003.82,0003.28
2022-07-09 08:38:00,,0832.0,4.99,0.00,29.7,27.6,00.0,38.5,31.4,24.7,0000.0,0008.60,0003.80,0003.28
2022-07-09 08:39:00,,0832.0,5.00,0.00,29.7,27.7,00.0,38.5,31.4,24.7,0000.0,0008.49,0003.78,0003.28
2022-07-09 08:40:00,,0831.9,5.00,0.00,29.7,27.9,00.0,38.5,31.4,25.0,0000.0,0008.98,0003.82,0003.28
2022-07-09 08:41:00,,0832.0,5.01,0.00,29.7,28.0,00.0,38.5,31.5,25.3,0000.0,0008.80,0003.79,0003.28
2022-07-09 08:42:00,,0832.1,5.01,0.00,29.7,28.1,00.0,38.5,31.5,25.4,0000.0,0007.78,0003.77,0003.28
2022-07-09 08:43:00,,0832.1,5.00,0.00,29.7,28.2,00.0,38.5,31.5,25.3,0000.0,0008.04,0003.78,0003.29
2022-07-09 08:44:00,,0832.1,5.00,0.00,29.7,28.3,00.0,38.5,31.5,25.3,0000.0,0008.12,0003.80,0003.29
2022-07-09 08:45:00,,0832.1,5.00,0.00,29.7,28.4,00.0,38.5,31.6,25.4,0000.0,0008.07,0003.79,0003.28
2022-07-09 08:46:00,,0832.0,5.00,0.00,29.7,28.5,00.0,38.5,31.6,25.0,0000.0,0008.17,0003.82,0003.28
2022-07-09 08:47:00,,0831.9,4.99,0.00,29.8,28.6,00.0,38.5,31.6,24.4,0000.0,0008.17,0003.82,0003.28
2022-07-09 08:48:00,,0832.0,5.01,0.00,29.8,28.6,00.0,38.5,31.7,24.2,0000.0,0008.21,0003.83,0003.27
2022-07-09 08:49:00,,0831.9,5.01,0.00,29.8,28.7,00.0,38.5,31.7,24.4,0000.0,0008.16,0003.85,0003.27
2022-07-09 08:50:00,,0832.0,5.00,0.00,29.8,28.7,00.0,38.5,31.7,24.4,0000.0,0009.14,0003.86,0003.28
2022-07-09 08:51:00,,0832.0,5.01,0.00,29.8,28.8,00.0,38.6,31.7,24.1,0000.0,0008.72,0003.84,0003.28
2022-07-09 08:52:00,,0831.9,5.00,0.00,29.9,28.8,00.0,38.6,31.7,23.9,0000.0,0008.89,0003.86,0003.27
2022-07-09 08:53:00,,0832.0,5.00,0.00,29.9,28.8,00.0,38.6,31.8,24.0,0000.0,0009.47,0003.90,0003.27
2022-07-09 08:54:00,,0832.0,5.00,0.00,29.9,28.9,00.0,38.6,31.8,24.5,0000.0,0009.23,0003.91,0003.27
2022-07-09 08:55:00,,0832.0,5.00,0.00,29.9,28.9,00.0,38.6,31.8,24.7,0000.0,0009.09,0003.87,0003.27
2022-07-09 08:56:00,,0831.8,5.00,0.00,30.0,28.5,00.0,38.6,31.8,24.6,0000.0,0009.13,0003.88,0003.28
2022-07-09 08:57:00,,0831.8,5.00,0.00,29.9,27.8,00.0,38.6,31.7,23.8,0000.0,0009.11,0003.86,0003.27
2022-07-09 08:58:00,,0831.8,5.00,0.00,29.9,27.5,00.0,38.5,31.6,24.3,0000.0,0009.50,0003.87,0003.27
2022-07-09 08:59:00,,0831.8,5.00,0.00,29.8,27.4,00.0,38.5,31.5,24.3,0000.0,0010.23,0003.87,0003.27
